Location: Harmony
(28.2000°N, 81.1500°W)
Time: 18:14:48
(UTC-04:00)

Daily predictions for brighter satellites

Satellite Brightness Start Highest point End
(mag) Time Altitude Azimuth Time Altitude Azimuth Time Altitude Azimuth
Cosmos 2221 4.0 19:14:31 10° SE 19:17:05 16° E 19:19:41 10° NE
METEOR-M 4.4 19:16:06 10° SE 19:21:11 46° ENE 19:26:15 10° N
SPOT 3 Rocket 4.0 19:18:03 10° SE 19:22:51 40° ENE 19:27:40 10° N
Ariane Rocket 4.2 19:18:20 10° S 19:23:12 48° W 19:28:08 10° NNW
ISS -2.7 19:21:52 10° NNW 19:24:42 26° NE 19:27:31 10° ESE
SL-8 Rocket 4.3 19:18:42 10° S 19:24:50 75° W 19:31:03 10° N
Cosmos 1500 Rocket 4.5 19:23:37 10° NNE 19:27:15 26° E 19:30:50 10° SE
Cosmos 1315 Rocket 4.4 19:30:43 10° NE 19:33:18 16° ENE 19:35:52 10° ESE
Cosmos 1833 4.2 19:28:55 10° SSW 19:34:38 81° ESE 19:40:20 10° NNE
Cosmos 2098 Rocket 4.3 19:34:52 10° SE 19:37:23 17° E 19:40:14 10° NE
NOAA 12 4.4 19:32:52 10° SE 19:37:49 43° ENE 19:42:48 10° N
Meteor 2-1 Rocket 4.3 19:32:15 10° S 19:37:50 63° E 19:43:35 10° NNE
Cosmos 2056 Rocket 3.5 19:34:19 10° N 19:39:32 59° ENE 19:44:38 10° SSE
Cosmos 2219 4.2 19:35:16 10° SSE 19:39:51 25° ESE 19:44:26 10° NE
DMSP B5D1-3 4.5 19:35:24 10° NNE 19:40:31 73° ESE 19:45:38 10° S
Cosmos 2360 Rocket 3.2 19:37:29 10° N 19:42:05 25° ENE 19:46:09 12° ESE
Cosmos 2058 3.3 19:39:13 10° NNE 19:43:08 39° E 19:47:00 10° SSE
Cosmos 1980 Rocket 4.3 19:38:32 10° NW 19:43:27 31° WSW 19:48:20 10° SSW
COSMO-SKYMED 1 3.6 19:42:28 10° N 19:46:39 49° WNW 19:50:49 10° SSW
RESURS DK-1 4.1 19:44:55 10° NNE 19:47:05 15° ENE 19:47:05 15° ENE
Cosmos 2322 Rocket 2.1 19:42:41 10° NNW 19:48:18 81° ENE 19:53:55 10° SSE
Cosmos 1626 2.0 19:46:09 10° N 19:49:52 70° E 19:53:34 10° SSE
GPS 2-05 Rocket1 4.4 19:49:50 10° W 19:52:53 31° SSW 19:55:55 10° SSE
Meteor 1-11 4.3 19:49:16 10° N 19:55:02 84° W 20:00:44 10° S
SAR-Lupe-3 4.4 19:51:50 10° NNE 19:55:26 84° ESE 19:58:59 10° S
NOSS 3-4 (C) 4.5 19:49:55 10° NW 19:57:05 61° WSW 20:04:40 10° SSE
Cosmos 1452 Rocket 4.2 19:52:47 10° N 19:57:25 31° ENE 20:00:14 19° ESE
USA 267 3.3 19:51:24 10° NE 19:57:58 88° NW 20:04:30 10° SW
Centaur AC-112 2.8 19:51:02 10° W 20:00:02 67° S 20:01:27 30° ESE
Atlas Centaur 2 2.2 19:55:57 10° W 20:00:54 70° N 20:04:35 25° E
Cosmos 1727 Rocket 4.0 19:57:56 10° N 20:04:18 89° E 20:10:37 10° S
ALOS 2.1 20:01:41 10° SSE 20:06:20 82° ENE 20:11:01 10° N
Cosmos 2322 4.3 20:02:27 10° N 20:07:36 33° ENE 20:09:19 28° E
CZ-4C R/B 2.1 20:04:13 10° S 20:09:00 51° ESE 20:12:17 22° NE
FENGYUN 3A 3.6 20:05:31 10° SSE 20:10:53 84° ENE 20:16:18 10° N
Skynet4D Del rocket 4.3 20:06:07 10° WSW 20:13:07 78° S 20:17:27 29° E
ATLAS 2AS CENTAUR RB 4.4 20:02:04 10° WSW 20:15:42 20° SSW 20:20:19 10° SSE
Cosmos 1703 3.8 20:15:47 10° NNW 20:19:38 57° W 20:23:27 10° S
Cosmos 1400 Rocket 4.4 20:25:11 10° NNW 20:28:53 36° W 20:32:30 10° SSW
ASTRO E2 3.0 20:26:31 10° W 20:30:25 52° N 20:30:31 52° N
Tiangong 1 3.0 20:28:40 10° NW 20:29:46 21° NW 20:29:46 21° NW
Cosmos 1048 Rocket 4.0 20:26:40 10° SSW 20:31:49 78° WNW 20:36:56 10° NNE
Cosmos 2219 Rocket 4.3 20:29:06 10° NNE 20:29:17 11° NNE 20:29:17 11° NNE
Iridium 4 Rocket 4.0 20:31:55 10° S 20:37:04 65° W 20:42:40 10° N
SL-16 R/B 4.1 20:36:51 10° NW 20:41:42 29° WSW 20:46:31 10° SSW
H-2A R/B 3.3 20:43:00 54° NW 20:43:00 54° NW 20:46:10 10° NNW
Cosmos 2237 4.2 20:37:40 10° N 20:42:59 57° NE 20:42:59 57° NE
Cosmos 1420 Rocket 4.0 20:39:36 10° N 20:44:26 65° NE 20:44:26 65° NE
Cosmos 44 3.9 20:42:11 10° SW 20:46:26 47° WNW 20:47:53 34° NNW
Cosmos 1726 3.6 20:45:26 10° SSW 20:47:40 31° SW 20:47:40 31° SW
Cosmos 44 Rocket 4.4 20:52:36 10° SW 20:57:01 39° WNW 20:58:42 29° NNW
ISS -0.8 20:58:50 10° W 21:00:17 16° WSW 21:00:17 16° WSW
Milstar 3 Cent rocket 3.8 20:59:35 10° W 21:05:48 26° SW 21:07:23 23° S
Hubble Space Telescope 3.7 21:06:50 10° SSW 21:06:52 10° SSW 21:06:52 10° SSW
COSMOS 2428 4.1 21:13:38 10° NNW 21:16:20 29° NNW 21:16:20 29° NNW
Cosmos 2360 Rocket 3.7 21:21:02 10° NW 21:26:00 32° WSW 21:28:04 25° SW
Atlas Centaur 2 3.9 21:44:28 10° WNW 21:47:12 31° W 21:47:12 31° W
